Temperature
18 18 18 18 18 18 18 18 18 18 18 18 18 18 18 18 18 18 18 18 18 18 18 18 18 18 18 18 18 18 18 18 18 18 18 18 18 18 18 18 18 18 18
18 18 18 18 18 18 18 18 18 18 18 18 18 17 17 17 17 17 17 17 17 17 17 18 18 18 18 18 18 18 18 18 18 18 18 18 18 18 18 18 18 18 18
18 18 18 18 18 18 18 18 18 18 17 17 17 17 17 17 17 17 17 17 17 17 17 17 17 17 17 17 17 17 18 18 18 18 18 18 18 18 18 18 18 18 18
18 18 18 18 18 18 18 18 18 17 17 17 17 17 17 17 17 17 16 16 16 17 17 17 17 17 17 17 17 17 17 17 18 18 18 18 18 18 18 18 18 18 18
18 18 18 18 18 18 17 17 17 17 17 17 16 16 16 16 16 16 16 16 16 16 16 17 17 17 17 17 17 17 17 17 17 18 18 18 18 17 17 18 18 18 18
18 18 18 18 17 17 17 17 17 16 16 16 16 16 16 16 16 16 16 16 16 16 16 16 16 16 17 17 17 17 17 17 17 17 17 17 17 17 17 18 18 18 18
18 18 17 17 17 17 17 16 16 16 16 16 16 16 16 16 16 15 15 15 15 16 16 16 16 16 16 16 17 17 17 17 17 17 17 17 17 17 17 17 18 18 18
18 18 17 17 17 17 16 16 16 16 16 16 15 15 15 15 15 15 15 15 15 15 15 15 16 16 16 16 16 17 17 17 17 17 17 17 17 17 17 17 17 18 18
18 18 17 17 17 16 16 16 16 16 15 15 15 15 15 15 15 15 15 15 15 15 15 15 15 15 15 16 16 16 16 17 17 17 17 17 17 17 17 17 17 17 18
18 18 17 17 17 17 16 16 16 15 15 15 15 15 15 15 15 15 15 15 14 14 14 14 15 15 15 15 16 16 16 16 17 17 17 17 17 17 17 17 17 17 17
18 18 17 17 17 16 16 16 16 16 15 15 15 15 15 15 15 15 15 15 14 14 14 14 15 15 15 15 15 16 16 16 16 17 17 17 17 17 17 17 17 17 17
18 18 18 17 17 17 16 16 16 16 15 15 15 15 15 15 15 15 15 14 14 14 14 14 15 15 15 15 15 16 16 16 16 16 16 17 17 17 17 17 17 17 17
18 18 18 17 17 17 16 16 16 16 16 15 15 15 15 15 15 15 15 14 14 14 14 14 15 15 15 15 15 15 16 16 16 16 16 16 16 17 17 17 17 17 17
19 18 18 18 17 17 17 16 16 16 16 15 15 15 15 15 15 14 14 14 14 14 14 14 14 14 15 15 15 15 16 16 16 16 16 16 16 16 17 17 17 17 17
19 19 18 18 18 17 17 17 16 16 16 15 15 15 15 15 14 14 14 14 14 14 14 14 14 14 15 15 15 15 15 15 16 16 16 16 16 16 16 17 17 17 17
19 19 19 18 18 17 17 17 16 16 16 15 15 15 14 14 14 14 14 14 14 14 14 14 14 14 15 15 15 15 15 15 15 16 16 16 16 16 16 16 17 17 17
19 19 19 18 18 18 17 17 16 16 16 15 15 15 14 14 14 14 14 14 14 14 14 14 14 14 15 15 15 15 15 15 15 15 16 16 16 16 16 16 16 17 17
20 19 19 18 18 18 17 17 16 16 16 15 15 15 14 14 14 14 14 14 14 14 14 14 14 14 15 15 15 15 15 15 15 15 15 16 16 16 16 16 16 16 16
20 19 19 19 18 18 17 17 16 16 16 15 15 15 14 14 14 14 14 14 14 14 14 14 14 14 15 15 15 15 15 15 15 15 15 15 15 16 16 16 16 16 16
20 19 19 19 18 18 17 17 17 16 16 15 15 15 14 14 14 14 14 14 14 14 14 14 14 14 14 15 15 15 15 15 15 15 15 15 15 15 15 15 16 16 16
20 19 19 19 18 18 17 17 17 16 16 15 15 15 14 14 14 14 14 14 14 14 14 14 14 14 14 14 15 15 14 15 15 15 15 15 15 15 15 15 15 16 16
20 20 19 19 19 18 18 17 17 16 16 15 15 15 14 14 14 14 14 14 14 14 14 14 14 14 14 14 14 14 14 14 15 15 15 15 15 15 15 15 15 15 16
20 20 20 19 19 18 18 17 17 16 16 16 15 15 15 14 14 14 14 14 14 14 14 14 14 14 14 14 14 14 14 14 14 14 14 15 15 15 15 15 15 15 16
20 20 19 19 19 18 18 17 17 17 16 16 15 15 15 15 14 14 14 14 14 14 14 14 14 14 14 14 14 14 14 14 14 14 14 14 15 15 15 15 15 15 15
20 20 19 19 19 18 18 17 17 17 16 16 15 15 15 15 15 14 14 14 14 14 14 14 14 14 14 14 14 14 14 14 14 14 14 14 15 15 15 15 15 15 15
20 19 19 19 18 18 18 17 17 17 16 16 15 15 15 15 15 15 14 14 14 14 14 14 14 14 14 14 14 14 14 14 14 14 14 14 14 15 15 15 15 15 15
Wind_Speed
1 2 8 10 10 11 11 11 11 12 12 11 11 11 11 11 10 10 9 9 9 9 9 8 8 8 8 7 7 7 7 7 7 7 7 6 6 6 6 7 7 6 7
4 5 8 10 10 11 11 11 11 12 12 11 11 11 11 10 10 10 9 8 8 8 8 7 7 7 6 7 6 6 7 6 6 7 7 6 5 5 5 6 6 6 7
5 6 8 9 10 10 11 11 11 11 11 11 11 10 10 9 9 9 8 8 7 7 7 7 7 6 6 6 6 6 6 6 6 6 7 6 4 4 5 5 6 6 7
6 7 8 10 10 10 10 10 11 11 11 10 10 10 9 9 8 8 8 7 7 7 6 6 6 6 6 6 6 6 6 6 6 6 6 5 4 3 4 4 5 6 7
6 7 8 9 9 9 10 10 10 10 10 10 9 9 8 8 8 7 7 7 6 6 6 6 6 6 5 6 6 6 6 6 5 6 5 5 4 3 3 3 4 5 6
5 6 7 9 9 9 10 10 9 9 8 8 8 8 8 7 7 7 7 6 6 6 6 6 6 6 5 5 5 5 5 6 5 5 5 4 4 2 2 2 3 4 5
5 5 6 8 9 9 9 9 8 8 7 7 7 7 7 6 6 6 6 6 6 5 5 5 5 6 5 5 5 5 5 5 4 3 4 4 4 2 0 1 2 3 4
5 5 5 7 7 7 8 7 7 7 6 6 6 6 6 5 5 5 5 5 5 5 5 5 5 5 5 5 5 5 5 5 4 3 3 3 4 3 1 1 1 2 3
4 4 3 4 4 5 5 5 5 5 5 5 5 5 5 5 5 5 5 5 5 5 5 6 6 5 5 5 6 5 5 4 3 2 3 3 4 3 2 1 1 2 3
3 2 2 2 3 3 3 3 3 3 4 5 6 6 6 7 7 6 6 6 5 6 6 7 7 7 6 6 6 5 5 4 3 3 3 4 4 3 2 1 1 2 2
2 1 1 1 1 1 1 2 4 5 7 7 8 8 7 7 7 7 7 6 6 6 7 8 8 7 7 6 6 5 4 3 3 3 3 4 3 3 2 2 2 2 2
4 3 2 2 1 0 1 3 4 5 6 6 6 6 6 6 7 7 8 8 9 9 8 9 9 8 8 6 6 5 4 4 3 3 3 4 3 3 2 2 2 2 2
5 4 4 3 2 1 1 2 3 3 4 5 6 5 5 6 6 7 7 8 9 8 8 8 8 8 7 6 5 4 4 4 3 4 4 4 3 2 2 2 2 3 3
4 5 4 3 2 2 1 1 1 2 3 3 4 4 5 4 4 5 5 6 7 6 6 6 5 6 6 5 4 4 4 3 3 4 4 4 2 1 1 2 2 3 3
5 4 3 3 3 2 1 1 2 2 3 3 4 5 5 4 3 3 4 5 6 6 5 4 4 4 4 5 4 3 3 4 4 4 4 4 3 2 2 2 2 3 3
5 4 3 3 3 3 2 2 2 3 4 4 5 5 5 5 3 3 3 4 5 6 5 4 3 3 3 3 3 4 3 3 4 4 4 4 4 3 3 2 1 2 3
5 4 4 4 4 4 4 3 4 4 4 4 4 5 5 5 4 4 3 3 5 6 6 5 4 4 3 3 3 4 3 4 4 4 3 4 4 4 4 3 2 2 3
5 5 5 5 5 5 4 4 4 4 5 4 4 5 6 6 5 4 3 3 6 6 5 3 3 3 3 3 3 3 3 3 4 3 3 4 4 4 4 3 2 1 1
7 6 5 6 6 5 5 5 5 5 4 4 4 4 5 5 5 4 3 3 6 4 4 4 3 2 3 3 3 3 4 4 3 4 4 4 4 4 3 3 3 2 1
6 6 7 6 6 6 5 4 4 4 3 3 3 3 4 4 5 5 3 5 5 4 4 4 4 3 2 2 3 4 4 4 3 4 4 4 5 5 4 4 4 3 2
6 6 7 7 5 5 3 3 3 1 1 2 2 3 4 4 5 4 3 4 4 4 4 4 3 4 4 3 3 3 4 4 5 4 4 3 4 5 5 4 3 3 3
6 7 7 7 6 5 3 3 2 2 1 0 2 3 4 4 4 4 3 3 3 4 5 5 4 3 3 4 3 2 3 5 4 5 4 4 4 4 4 4 4 3 3
6 7 7 7 6 5 5 4 3 3 3 2 2 2 3 4 3 3 3 2 3 3 3 4 4 4 3 3 3 3 3 1 2 3 4 4 4 3 3 4 4 4 4
5 5 6 6 6 5 5 5 4 3 1 1 1 2 3 4 3 3 3 3 2 2 3 3 3 2 2 3 3 3 2 2 1 2 3 3 4 4 3 3 3 4 4
5 5 6 6 5 4 5 5 5 3 1 0 1 2 3 3 4 3 3 3 2 2 3 3 3 3 2 2 2 2 2 2 2 1 1 4 4 3 2 2 2 3 3
5 5 6 6 5 4 5 4 4 4 2 1 1 1 2 3 3 3 3 2 2 2 2 2 2 3 2 2 2 2 1 1 1 1 0 1 2 3 2 2 2 2 3
Wind_Direction
111 120 114 106 103 101 98 97 95 95 96 95 94 93 92 91 91 90 89 87 84 82 80 77 71 67 62 61 58 56 53 51 51 51 53 61 63 65 65 62 57 48 54
136 122 115 109 104 102 99 97 94 93 93 92 91 88 88 87 85 85 85 85 82 78 76 74 69 65 58 52 49 46 43 41 41 42 46 46 55 68 65 63 61 55 53
112 113 113 112 109 105 101 98 96 93 91 90 88 87 85 84 82 79 76 75 75 75 73 65 58 55 51 46 40 36 34 31 34 40 39 30 30 61 64 62 60 58 53
116 113 113 111 108 106 104 100 97 94 92 90 88 86 83 79 77 73 69 67 65 65 64 58 50 45 38 35 29 24 23 24 29 36 30 20 12 50 62 62 57 55 54
109 112 119 115 111 108 104 100 96 93 90 88 86 83 80 76 73 70 65 60 56 53 50 48 39 33 28 24 19 14 12 15 27 32 23 15 7 22 51 59 54 54 54
108 114 125 122 115 109 103 99 97 93 89 86 83 79 75 71 67 62 57 51 47 42 35 31 24 18 14 10 7 4 2 7 20 26 16 3 353 354 44 64 57 51 51
119 119 127 124 117 111 104 99 94 91 88 83 79 74 68 63 57 49 42 37 34 30 24 17 11 6 1 357 355 352 351 352 9 15 3 347 334 321 354 85 72 55 54
127 121 125 128 122 115 109 102 98 92 84 78 72 62 54 45 39 32 27 21 19 14 10 7 1 356 355 351 347 345 344 349 357 351 340 329 316 300 258 138 99 74 63
118 115 100 98 110 113 108 104 97 88 76 65 54 43 35 28 20 15 9 6 6 1 358 357 352 348 344 343 342 342 342 349 360 335 322 313 304 290 250 216 156 101 77
105 101 102 90 80 68 57 75 77 59 45 36 29 24 24 19 11 6 2 359 358 355 354 357 356 353 349 345 342 345 349 354 347 322 306 293 296 276 244 213 172 131 101
173 174 138 143 79 51 16 14 27 23 22 21 18 20 27 20 13 9 9 9 6 4 2 2 2 1 1 358 353 359 11 4 339 321 297 285 286 261 241 206 180 156 126
210 221 211 214 213 316 341 18 14 13 18 18 17 21 24 26 24 25 21 23 23 20 16 13 10 12 12 7 6 18 18 358 347 325 305 297 284 265 242 220 202 183 157
211 223 208 205 203 195 307 1 7 13 21 26 30 31 39 46 40 35 28 21 21 22 18 11 13 13 11 8 5 9 11 8 351 336 329 320 291 261 240 224 219 195 174
200 218 214 183 176 195 214 352 33 39 37 34 33 48 63 55 42 32 27 16 17 14 9 8 5 6 11 10 11 8 12 15 356 343 334 337 318 281 261 241 221 205 184
197 205 202 177 170 164 139 77 84 80 69 61 59 57 67 68 52 37 24 22 18 14 8 0 360 2 6 7 13 15 2 6 1 354 346 353 357 337 312 283 234 212 193
195 192 180 165 159 146 129 117 107 97 88 82 66 57 67 72 64 45 28 18 11 4 359 356 354 355 352 1 7 11 4 6 1 358 360 7 16 7 347 322 274 222 207
187 175 165 158 140 135 132 127 110 102 99 81 65 60 61 61 56 50 30 10 357 356 1 8 9 15 14 14 11 4 7 4 1 1 9 14 16 9 360 352 323 263 219
167 161 160 145 130 126 121 109 104 100 92 76 64 57 54 56 58 53 32 5 357 4 11 10 15 16 14 13 9 1 6 3 3 9 24 23 22 14 7 2 355 325 255
166 157 142 130 128 120 105 95 91 86 75 65 57 51 49 50 52 54 36 7 7 15 13 11 23 22 15 7 11 20 17 15 5 21 26 24 23 22 17 12 20 18 6
154 147 138 128 121 111 94 84 70 61 48 47 41 33 37 38 40 45 34 15 18 21 13 13 19 22 23 5 30 34 24 20 24 29 25 25 25 26 30 29 25 15 15
146 145 145 141 138 127 112 109 103 85 39 22 12 15 26 31 33 41 29 16 19 24 11 9 16 23 20 9 39 25 14 23 35 30 21 25 25 23 31 32 29 29 17
158 156 154 154 155 153 138 131 131 127 102 26 339 3 17 20 23 34 37 20 14 18 18 19 25 25 20 24 54 59 20 5 7 17 19 28 22 21 24 31 36 36 32
159 163 163 160 159 153 134 113 89 64 43 21 1 346 344 358 14 28 28 29 21 28 16 13 22 42 31 17 39 84 88 16 334 349 11 20 14 15 8 17 32 32 38
161 149 146 151 152 148 142 138 136 135 145 250 286 313 332 353 4 13 13 24 25 22 18 9 35 38 56 29 16 37 93 163 112 355 346 355 4 10 4 9 18 20 31
139 139 137 137 138 138 137 138 129 127 150 271 353 347 346 348 358 4 8 18 17 10 10 19 28 41 53 57 30 21 45 52 69 118 344 337 351 349 355 353 6 10 20
119 123 127 129 126 125 124 125 133 138 141 110 32 353 338 338 342 356 6 10 4 3 4 13 27 43 46 57 47 45 58 57 41 96 108 336 336 324 341 350 1 7 13
Height
1527 1528 1528 1529 1529 1530 1530 1531 1531 1531 1532 1532 1533 1533 1534 1534 1534 1534 1534 1535 1535 1535 1535 1535 1535 1535 1535 1535 1534 1534 1534 1534 1534 1533 1533 1533 1532 1532 1531 1530 1530 1529 1528
1528 1529 1529 1530 1530 1531 1531 1531 1532 1532 1533 1533 1533 1534 1534 1534 1535 1535 1535 1535 1535 1535 1535 1535 1536 1535 1535 1535 1535 1535 1535 1535 1535 1534 1534 1534 1533 1533 1532 1531 1531 1530 1529
1529 1530 1530 1531 1531 1532 1532 1532 1532 1533 1533 1533 1534 1534 1534 1535 1535 1535 1535 1536 1536 1536 1536 1536 1536 1536 1536 1536 1536 1536 1536 1536 1535 1535 1535 1534 1534 1534 1533 1532 1532 1531 1530
1530 1531 1531 1532 1532 1532 1533 1533 1533 1533 1534 1534 1534 1535 1535 1535 1535 1536 1536 1536 1536 1536 1536 1536 1536 1536 1536 1536 1536 1536 1536 1536 1536 1535 1535 1535 1535 1535 1534 1534 1533 1532 1531
1531 1532 1533 1533 1533 1533 1533 1534 1534 1534 1535 1535 1535 1535 1535 1535 1535 1536 1536 1536 1536 1536 1536 1536 1536 1535 1535 1535 1536 1536 1536 1536 1536 1536 1536 1536 1536 1535 1535 1534 1534 1533 1533
1533 1533 1534 1535 1535 1535 1535 1535 1535 1535 1535 1536 1536 1536 1536 1536 1536 1536 1536 1536 1535 1535 1535 1535 1535 1535 1535 1535 1535 1535 1536 1536 1536 1536 1536 1536 1536 1536 1536 1535 1535 1534 1534
1534 1535 1536 1536 1536 1536 1536 1536 1536 1536 1537 1537 1537 1537 1537 1537 1536 1536 1536 1536 1535 1535 1535 1535 1534 1534 1534 1534 1534 1535 1535 1535 1535 1536 1536 1536 1536 1536 1536 1536 1536 1535 1535
1536 1537 1537 1538 1538 1538 1538 1538 1538 1538 1538 1538 1538 1538 1538 1538 1537 1537 1537 1536 1535 1535 1534 1534 1534 1534 1533 1533 1533 1534 1534 1534 1535 1535 1536 1536 1536 1537 1537 1537 1536 1536 1536
1538 1538 1539 1539 1540 1540 1540 1540 1540 1540 1540 1540 1540 1540 1539 1539 1538 1538 1537 1536 1536 1535 1534 1534 1533 1533 1533 1533 1533 1533 1533 1533 1534 1535 1535 1536 1536 1537 1537 1537 1537 1537 1537
1539 1540 1541 1541 1541 1541 1542 1542 1542 1542 1542 1542 1541 1541 1540 1540 1539 1538 1538 1537 1536 1535 1535 1534 1533 1533 1533 1532 1532 1532 1533 1533 1533 1534 1535 1536 1536 1537 1537 1537 1538 1538 1538
1541 1542 1543 1543 1543 1543 1543 1543 1543 1543 1543 1543 1542 1542 1541 1540 1540 1539 1538 1537 1536 1536 1535 1534 1533 1533 1532 1532 1532 1532 1532 1533 1533 1534 1534 1535 1536 1536 1537 1538 1538 1538 1539
1542 1543 1544 1544 1545 1545 1545 1545 1545 1545 1544 1544 1543 1542 1542 1541 1540 1539 1538 1537 1536 1535 1535 1534 1533 1533 1532 1532 1532 1532 1532 1533 1533 1533 1534 1535 1536 1536 1537 1537 1538 1539 1539
1543 1544 1545 1546 1546 1546 1546 1546 1546 1546 1545 1545 1544 1543 1542 1541 1541 1540 1538 1537 1536 1535 1534 1533 1532 1532 1532 1532 1532 1532 1532 1533 1533 1534 1534 1535 1535 1536 1537 1537 1538 1539 1539
1544 1545 1546 1547 1547 1547 1547 1547 1547 1546 1546 1545 1545 1544 1543 1542 1541 1540 1538 1537 1536 1535 1534 1533 1532 1531 1531 1531 1532 1532 1532 1533 1533 1534 1534 1534 1535 1536 1536 1537 1538 1539 1540
1545 1546 1547 1548 1548 1548 1548 1548 1548 1547 1547 1546 1545 1544 1543 1542 1541 1540 1538 1537 1536 1534 1533 1532 1531 1531 1531 1531 1531 1532 1532 1532 1533 1533 1534 1534 1535 1535 1536 1537 1538 1539 1540
1546 1547 1548 1548 1549 1549 1549 1549 1549 1548 1548 1547 1546 1545 1544 1542 1541 1540 1538 1537 1535 1534 1533 1532 1531 1530 1530 1530 1531 1531 1532 1532 1532 1533 1533 1534 1535 1535 1536 1537 1537 1539 1540
1546 1548 1549 1549 1550 1550 1550 1550 1550 1549 1549 1548 1547 1545 1544 1543 1542 1540 1539 1537 1535 1534 1533 1532 1531 1530 1530 1530 1530 1530 1531 1531 1532 1533 1533 1534 1534 1535 1536 1536 1537 1538 1540
1547 1548 1549 1550 1551 1551 1551 1551 1551 1550 1550 1549 1548 1546 1545 1543 1542 1541 1539 1537 1536 1534 1533 1532 1531 1530 1530 1529 1530 1530 1530 1531 1532 1532 1533 1534 1534 1535 1535 1536 1537 1538 1540
1547 1549 1550 1551 1551 1552 1552 1552 1552 1551 1551 1550 1549 1547 1546 1544 1543 1542 1540 1538 1537 1535 1534 1533 1531 1530 1530 1530 1530 1530 1530 1531 1531 1532 1533 1534 1534 1535 1535 1536 1537 1538 1539
1547 1549 1550 1551 1552 1553 1553 1553 1552 1552 1552 1551 1550 1549 1547 1546 1544 1543 1541 1540 1538 1536 1535 1534 1532 1531 1531 1530 1530 1530 1530 1531 1531 1532 1533 1534 1534 1535 1535 1536 1537 1538 1539
1547 1549 1550 1552 1553 1553 1553 1553 1553 1553 1552 1552 1551 1550 1548 1547 1546 1544 1543 1541 1539 1538 1536 1535 1534 1533 1532 1531 1531 1531 1531 1531 1532 1532 1533 1533 1534 1534 1535 1536 1537 1538 1539
1546 1548 1550 1552 1553 1553 1554 1554 1554 1554 1553 1553 1552 1551 1550 1548 1547 1545 1544 1542 1541 1539 1538 1536 1535 1534 1533 1532 1532 1532 1532 1534 1533 1533 1533 1534 1534 1534 1535 1536 1537 1538 1539
1546 1548 1550 1551 1553 1554 1554 1554 1554 1554 1554 1553 1553 1552 1551 1550 1548 1547 1545 1544 1542 1541 1540 1538 1537 1536 1535 1534 1534 1534 1533 1534 1534 1534 1534 1534 1534 1534 1535 1535 1536 1537 1538
1545 1547 1550 1551 1553 1553 1554 1554 1555 1554 1554 1554 1553 1553 1552 1551 1549 1548 1547 1545 1544 1543 1541 1540 1539 1537 1537 1536 1535 1535 1535 1535 1535 1535 1535 1535 1534 1534 1535 1535 1536 1537 1538
1544 1547 1549 1551 1552 1553 1554 1554 1555 1555 1554 1554 1553 1553 1552 1551 1550 1549 1548 1546 1545 1544 1543 1542 1540 1539 1539 1537 1537 1536 1536 1536 1535 1535 1535 1535 1535 1535 1535 1535 1536 1537 1538
1544 1546 1548 1550 1552 1553 1553 1554 1554 1554 1554 1554 1554 1553 1553 1552 1551 1550 1548 1547 1546 1545 1544 1543 1542 1541 1540 1539 1538 1538 1537 1537 1536 1536 1535 1535 1535 1535 1535 1535 1536 1536 1537